STARLINK-4658, 53612

Orbit data source: Space-Track

STARLINK-4658, 53612 is a payload satellite owned by SpaceX/Seattle (US) in LEO that was launched on Sun, 28 Aug 2022 UTC via an FALCON 9 launch vehicle from the Air Force Eastern Test Range (AFETR). Payload-class satellites include a variety of spacecraft equipped with specific instruments for various scientific and technological missions. These include communications satellites like Starlink; space stations such as the ISS; scientific satellites like the Hubble; Earth observation satellites from companies like Planet Labs, Umbra, and HawkEye 360; GPS; miniature CubeSats for education and research; and military/defense satellites.

Loading next visibility...
Identifier
53612, 2022-104AA
Orbit
LEO
Country
Flag of USUS
Related business
Manufacturer
SpaceX/Seattle
Mission
Operational Commercial Communications
Bus & Motor
STARLINK, Unknown motor
Mass
300 kg wet, ~290 kg dry
Launch date (UTC)
2022-08-28 (3 years ago)
Launch vehicle
FALCON 9
Launch site
Air Force Eastern Test Range (AFETR)
Object type
Payload
Rocket body
Debris
Shape & HBR
Box + 1 Pan, 4.4 m
Radar Cross Section
13.562 m², Large (>1 m²)

Expand to show TLE details & history
Last TLE update: 11 hours ago

TLE from 11 hours ago
0 STARLINK-4658
1 53612U 22104AA  25259.40992134  .00002110  00000-0  15065-3 0  9995
2 53612  53.2170 296.5686 0001258  88.1767 271.9370 15.08838934169321
Epoch: 2025-09-16T09:50Z
TLE epoch observation values (Epoch: 2025-09-16T09:50:17.203Z)
Latitude
0.00002°
Longitude
153.39631°
Altitude
540.615 km
Speed
7.593 km/s
True Right ascension
19h 46m 16s
True Declination
0° 00' 00"
Sunlit
Object was in full shadow at epoch
Visualization orbit readout
Latitude
Unknown
Longitude
Unknown
Altitude
Unknown
Speed
Unknown
Apparent Right ascension
Unknown
Apparent Declination
Unknown
Sunlit
N/A
Visualization observer readout
Local Sidereal Time
13:49:41
Azimuth
Unknown
Elevation
Unknown
Doppler factor
Unknown
Orbital elements
Apogee altitude
540.862 km
Perigee altitude
539.121 km
Semi-major axis
6,918.129 km
Eccentricity
0.00013
Inclination
53.217°
RAAN
296.5686°
Arg. of periapsis
88.1767°
True anomaly
271.92259°
Mean anomaly
271.937°
Eccentric anomaly
271.9298°
Mean motion
3.7719 °/min
Orbital period
95.44 mins
BSTAR
0.00015065
Loading maneuver chart data...
Computing Atmospheric mass density...
Loading historical data...
Loading historical data...
Loading historical data...
Loading historical data...
Loading historical data...
Loading historical data...
Loading historical data...

Documentation

Showing up to 5 results
|